Location: Newark
(16.3678°N, 77.8722°E)
Time: 09:23:03
(UTC+00:00)

Tiros 1 - Pass Details

Date: 11 December 2019
Orbit: 630 x 664 km, 48.4° (Epoch: 21 January)

Event Time Altitude Azimuth Distance (km) Brightness Sun altitude
Rises 22:09:50 0° 219° (SW) 2,977 - -40.8°
Reaches altitude 10° 22:12:11 10° 218° (SW) 2,063 - -40.3°
Maximum altitude 22:16:57 83° 132° (SE) 661 - -39.2°
Drops below altitude 10° 22:21:41 10° 43° (NE) 2,047 - -38.1°
Exits shadow 22:23:42 - 43° (NE) 2,830 10.7 -37.6°
Sets 22:24:01 0° 43° (NE) 2,952 10.8 -37.6°
